FW1463 Weather Reports


Display with metric or nautical units.
time (UTC)temp
F
wind
direction
speed
MPH
gust
MPH
rain 1hr
in
rain 24hr
in
rain mn
in
humidity
%
barometer
mb
20260503044329 73 272 2.0 7.0 0.01 0.19 0.01 89 1014.7
20260503043429 72 267 1.0 5.0 0.01 0.19 0.01 92 1014.9
20260503041629 72 252 1.0 3.0 0.01 0.19 0.01 95 1015.0
20260503040729 72 0 0.0 3.0 0.00 0.18 0.00 95 1015.0
20260503035829 71 0 0.0 3.0 0.00 0.18 0.18 95 1015.2
20260503034929 71 0 0.0 3.0 0.00 0.18 0.18 95 1015.2
20260503034029 71 0 0.0 2.0 0.00 0.18 0.18 95 1015.1
20260503033129 71 0 0.0 2.0 0.00 0.18 0.18 95 1014.5
20260503031329 71 0 0.0 2.0 0.01 0.18 0.18 94 1013.9
20260503030429 71 0 0.0 6.0 0.01 0.18 0.18 95 1013.9
20260503024629 71 166 1.0 4.0 0.01 0.18 0.18 95 1013.4
20260503023729 72 157 2.0 5.0 0.01 0.18 0.18 95 1012.9
20260503022829 72 142 1.0 4.0 0.01 0.18 0.18 95 1013.2
20260503021929 72 0 0.0 0.0 0.03 0.17 0.17 95 1013.6
20260503021029 72 0 0.0 4.0 0.04 0.17 0.17 95 1013.8
20260503020129 72 210 1.0 7.0 0.04 0.17 0.17 95 1014.0
20260503015229 73 199 1.0 5.0 0.04 0.17 0.17 95 1013.9
20260503014329 73 200 1.0 5.0 0.04 0.17 0.17 95 1013.5
20260503013429 73 181 1.0 3.0 0.04 0.17 0.17 95 1013.2
20260503012529 73 0 0.0 3.0 0.04 0.17 0.17 95 1013.6
20260503011629 73 177 1.0 5.0 0.01 0.14 0.14 95 1013.4
20260503004029 73 0 0.0 1.0 0.00 0.13 0.13 94 1013.3
20260503003129 73 0 0.0 1.0 0.01 0.13 0.13 93 1013.2
20260503002229 73 0 0.0 2.0 0.01 0.13 0.13 93 1013.2
20260503001329 73 0 0.0 3.0 0.01 0.13 0.13 92 1013.0
20260503000430 73 0 0.0 2.0 0.01 0.13 0.13 91 1012.9
20260502235529 73 338 1.0 3.0 0.01 0.13 0.13 91 1013.2
20260502234629 73 348 2.0 5.0 0.01 0.13 0.13 90 1012.9
20260502232829 74 329 3.0 5.0 0.00 0.12 0.12 93 1013.2
20260502231929 74 323 2.0 5.0 0.02 0.12 0.12 93 1013.3
20260502231029 74 324 3.0 6.0 0.12 0.12 0.12 93 1013.3
20260502225229 74 319 3.0 6.0 0.12 0.12 0.12 93 1012.9
20260502224329 74 316 4.0 7.0 0.12 0.12 0.12 92 1013.0
20260502223429 74 316 4.0 10.0 0.12 0.12 0.12 92 1012.8
20260502221629 76 310 6.0 14.0 0.04 0.04 0.05 84 1012.6
20260502220729 82 244 3.0 10.0 0.00 0.00 0.00 82 1011.8
20260502215829 82 243 2.0 7.0 0.00 0.00 0.00 81 1011.5
20260502214929 82 258 2.0 7.0 0.00 0.00 0.00 81 1011.7
20260502214029 82 262 2.0 10.0 0.00 0.00 0.00 80 1011.8
20260502213129 83 268 3.0 10.0 0.00 0.00 0.00 78 1011.8
20260502212229 83 262 2.0 7.0 0.00 0.00 0.00 77 1011.8
20260502211329 83 250 2.0 6.0 0.00 0.00 0.00 76 1011.7
20260502210429 84 263 2.0 7.0 0.00 0.00 0.00 75 1011.5
20260502205529 84 254 2.0 6.0 0.00 0.00 0.00 74 1011.5
20260502204629 85 270 3.0 10.0 0.00 0.00 0.00 73 1011.4
20260502203729 86 267 3.0 12.0 0.00 0.00 0.00 69 1011.5
20260502202829 88 263 3.0 10.0 0.00 0.00 0.00 69 1011.5
20260502201929 88 269 3.0 9.0 0.00 0.00 0.00 69 1011.5
20260502201029 88 256 3.0 8.0 0.00 0.00 0.00 70 1011.6
20260502200129 87 270 4.0 10.0 0.00 0.00 0.00 70 1011.7
20260502195229 87 275 5.0 12.0 0.00 0.00 0.00 71 1011.7
20260502194329 88 266 3.0 9.0 0.00 0.00 0.00 71 1011.7
20260502193429 87 270 4.0 10.0 0.00 0.00 0.00 68 1011.7
20260502192529 88 260 4.0 10.0 0.00 0.00 0.00 69 1011.9
20260502190729 89 258 3.0 9.0 0.00 0.00 0.00 70 1012.1
20260502185829 89 260 3.0 7.0 0.00 0.00 0.00 70 1012.2
20260502184929 89 236 4.0 13.0 0.00 0.00 0.00 70 1012.3
20260502184029 89 234 4.0 14.0 0.00 0.00 0.00 71 1012.3
20260502182229 88 265 4.0 12.0 0.00 0.00 0.00 73 1012.6
20260502181329 89 269 4.0 11.0 0.00 0.00 0.00 72 1012.7
20260502180429 88 266 4.0 15.0 0.00 0.00 0.00 71 1012.7
20260502170129 88 246 4.0 13.0 0.00 0.00 0.00 71 1012.8
20260502164329 89 245 4.0 12.0 0.00 0.00 0.00 69 1012.9
20260502163429 89 236 5.0 14.0 0.00 0.00 0.00 69 1012.9
20260502161629 88 234 5.0 12.0 0.00 0.00 0.00 71 1012.9
20260502160729 88 232 5.0 17.0 0.00 0.00 0.00 71 1012.8
20260502152229 87 231 5.0 17.0 0.00 0.00 0.00 70 1012.4
20260502151329 87 217 6.0 14.0 0.00 0.00 0.00 71 1012.4
20260502150429 87 213 5.0 15.0 0.00 0.00 0.00 70 1012.3
20260502130729 82 201 2.0 8.0 0.00 0.00 0.00 84 1011.8
20260502123129 76 184 1.0 4.0 0.00 0.00 0.00 92 1011.6
20260502122229 75 182 1.0 4.0 0.00 0.00 0.00 95 1011.5
20260502121329 74 0 0.0 2.0 0.00 0.00 0.00 96 1011.5
20260502120429 73 152 1.0 2.0 0.00 0.00 0.00 97 1011.5
20260502115529 72 0 0.0 3.0 0.00 0.00 0.00 97 1011.5
20260502114629 71 148 1.0 3.0 0.00 0.00 0.00 97 1011.4
20260502113729 71 150 1.0 4.0 0.00 0.00 0.00 97 1011.4
20260502112829 70 154 1.0 3.0 0.00 0.00 0.00 97 1011.4
20260502111929 70 156 1.0 4.0 0.00 0.00 0.00 97 1011.3
20260502111029 69 154 1.0 3.0 0.00 0.00 0.00 97 1011.4
20260502110129 68 0 0.0 1.0 0.00 0.00 0.00 97 1011.3
20260502105229 68 0 0.0 0.0 0.00 0.00 0.00 96 1011.3
20260502104329 67 0 0.0 0.0 0.00 0.00 0.00 96 1011.3
20260502103429 67 0 0.0 1.0 0.00 0.00 0.00 96 1011.3
20260502101629 66 0 0.0 0.0 0.00 0.00 0.00 95 1011.4
20260502100729 66 0 0.0 0.0 0.00 0.00 0.00 95 1011.5
20260502091329 67 0 0.0 1.0 0.00 0.00 0.00 95 1011.6
20260502070729 65 0 0.0 0.0 0.00 0.00 0.00 93 1011.5
20260502065829 65 0 0.0 0.0 0.00 0.00 0.00 93 1011.6
20260502064929 66 0 0.0 0.0 0.00 0.00 0.00 92 1011.8
20260502064029 66 0 0.0 0.0 0.00 0.00 0.00 92 1011.8
20260502063129 66 0 0.0 0.0 0.00 0.00 0.00 92 1011.8
20260502062229 66 0 0.0 0.0 0.00 0.00 0.00 92 1011.9
20260502061329 66 0 0.0 0.0 0.00 0.00 0.00 92 1012.1
20260502060429 66 0 0.0 0.0 0.00 0.00 0.00 91 1012.2
20260502055529 66 0 0.0 0.0 0.00 0.00 0.00 92 1012.2
20260502054629 66 0 0.0 0.0 0.00 0.00 0.00 92 1012.3
20260502053728 67 0 0.0 0.0 0.00 0.00 0.00 92 1012.3
20260502052829 67 0 0.0 0.0 0.00 0.00 0.00 91 1012.5
20260502051929 67 0 0.0 0.0 0.00 0.00 0.00 91 1012.6
20260502051028 67 0 0.0 0.0 0.00 0.00 0.00 90 1012.6
20260502050128 67 0 0.0 0.0 0.00 0.00 0.00 90 1012.7
20260502045228 67 0 0.0 0.0 0.00 0.00 0.00 90 1012.7